EW6338 Weather Reports


Display with metric or nautical units.
time (UTC)temp
F
wind
direction
speed
MPH
gust
MPH
rain 1hr
in
rain 24hr
in
rain mn
in
humidity
%
barometer
mb
20260902031546 61 131 0.0 0.0 0.00 0.39 0.39 97 1018.0
20260902030044 61 131 0.0 0.0 0.00 0.39 0.39 98 1018.1
20260902024544 61 131 0.0 0.0 0.00 0.39 0.39 97 1018.0
20260902023055 61 131 0.0 0.0 0.00 0.39 0.39 97 1018.1
20260902021542 61 131 0.0 0.0 0.00 0.39 0.39 97 1018.3
20260902020040 61 131 0.0 0.0 0.00 0.39 0.39 97 1018.2
20260902014541 61 131 0.0 0.0 0.00 0.39 0.39 97 1018.1
20260902013048 61 131 0.0 0.0 0.00 0.39 0.39 97 1018.1
20260902011537 61 131 0.0 0.0 0.00 0.39 0.39 97 1018.1
20260902010036 62 131 0.0 0.0 0.00 0.39 0.39 97 1017.9
20260902004537 62 131 0.0 0.0 0.00 0.39 0.39 97 1017.8
20260902003039 62 131 0.0 0.0 0.00 0.39 0.39 97 1017.8
20260902001545 62 131 0.0 0.0 0.00 0.39 0.39 96 1017.4
20260902000037 62 131 0.0 0.0 0.00 0.39 0.39 96 1017.2
20260901234533 62 131 0.0 0.0 0.00 0.39 0.39 96 1017.4
20260901233033 62 131 0.0 0.0 0.00 0.39 0.39 96 1017.5
20260901231531 63 131 0.0 0.0 0.00 0.39 0.39 95 1017.3
20260901230030 63 131 0.0 0.0 0.00 0.39 0.39 95 1017.5
20260901224530 64 131 0.0 0.0 0.00 0.39 0.39 95 1017.3
20260901223030 64 131 0.0 0.0 0.00 0.39 0.39 96 1017.3
20260901221528 65 131 0.0 0.0 0.00 0.39 0.39 96 1017.3
20260901220027 65 131 0.0 0.0 0.00 0.39 0.39 96 1017.2
20260901214526 64 131 0.0 0.0 0.00 0.39 0.39 96 1017.0
20260901213027 64 131 0.0 0.0 0.00 0.39 0.39 96 1017.1
20260901211526 64 131 0.0 0.0 0.00 0.39 0.39 95 1017.0
20260901210025 65 131 0.0 0.0 0.00 0.39 0.39 95 1017.0
20260901204524 65 131 0.0 0.0 0.00 0.39 0.39 95 1016.8
20260901203027 65 131 0.0 0.0 0.00 0.39 0.39 95 1016.5
20260901201523 66 131 0.0 0.0 0.00 0.39 0.39 95 1016.5
20260901200022 66 131 0.0 0.0 0.00 0.39 0.39 95 1016.5
20260901194524 66 131 0.0 0.0 0.00 0.39 0.39 95 1016.6
20260901193022 66 131 0.0 0.0 0.00 0.39 0.39 95 1016.7
20260901191546 65 131 0.0 0.0 0.00 0.39 0.39 96 1016.7
20260901190023 66 131 0.0 0.0 0.00 0.39 0.39 96 1016.8
20260901184520 65 131 0.0 0.0 0.01 0.39 0.39 96 1016.7
20260901183020 65 131 0.0 0.0 0.01 0.39 0.39 96 1016.7
20260901181521 64 131 0.0 0.0 0.02 0.39 0.39 96 1016.7
20260901180019 65 131 0.0 0.0 0.02 0.39 0.39 96 1016.5
20260901174518 64 131 0.0 0.0 0.01 0.38 0.38 96 1016.2
20260901173023 64 131 0.0 0.0 0.01 0.38 0.38 96 1016.3
20260901171522 64 296 0.0 0.0 0.00 0.37 0.37 96 1016.7
20260901170017 64 296 0.0 0.0 0.00 0.37 0.37 96 1016.7
20260901164534 64 293 0.0 0.0 0.00 0.37 0.37 96 1016.7
20260901163016 64 293 0.0 0.0 0.00 0.37 0.37 97 1016.8
20260901161532 64 293 0.0 0.0 0.00 0.37 0.37 96 1016.7
20260901160014 63 293 0.0 0.0 0.01 0.37 0.37 96 1016.5
20260901154514 63 293 0.0 0.0 0.01 0.37 0.37 96 1016.4
20260901153014 63 293 0.0 0.0 0.01 0.37 0.37 96 1016.6
20260901151513 63 293 0.0 0.0 0.00 0.36 0.36 96 1016.5
20260901150013 63 293 0.0 0.0 0.01 0.36 0.36 96 1016.3
20260901144512 63 126 0.0 0.0 0.02 0.36 0.36 97 1016.5
20260901143012 62 126 0.0 0.0 0.05 0.36 0.36 96 1016.2
20260901141513 62 193 0.0 0.0 0.09 0.36 0.36 96 1016.3
20260901140010 61 193 0.0 0.0 0.14 0.35 0.35 96 1016.3
20260901134510 61 193 0.0 0.0 0.19 0.34 0.34 95 1016.6
20260901133009 61 193 0.0 0.0 0.24 0.31 0.31 95 1016.9
20260901131507 61 193 0.0 0.0 0.24 0.27 0.27 94 1017.1
20260901130006 62 193 0.0 0.0 0.19 0.21 0.21 94 1017.1
20260901124514 62 192 0.0 0.0 0.14 0.14 0.14 93 1017.1
20260901123002 63 192 0.0 0.0 0.06 0.06 0.06 93 1017.1
20260901121559 63 192 0.0 0.0 0.03 0.03 0.03 93 1017.0
20260901120056 64 192 0.0 0.0 0.02 0.02 0.02 93 1016.8
20260901114632 64 192 0.0 0.0 0.00 0.00 0.00 92 1016.7
20260901113053 64 242 0.0 0.0 0.00 0.00 0.00 92 1016.7
20260901111552 64 242 0.0 0.0 0.00 0.00 0.00 91 1016.5
20260901110050 64 242 0.0 0.0 0.00 0.00 0.00 91 1016.4
20260901104549 64 242 0.0 0.0 0.00 0.00 0.00 91 1016.2
20260901103048 64 242 0.0 0.0 0.00 0.00 0.00 90 1016.0
20260901101550 64 242 0.0 0.0 0.00 0.00 0.00 89 1015.7
20260901100049 65 242 0.0 0.0 0.00 0.00 0.00 88 1015.5
20260901094546 65 242 0.0 0.0 0.00 0.00 0.00 88 1015.6
20260901093047 66 242 0.0 0.0 0.00 0.00 0.00 87 1015.6
20260901091545 66 242 0.0 0.0 0.00 0.00 0.00 86 1015.5
20260901090049 66 269 0.0 3.0 0.00 0.00 0.00 85 1015.5
20260901084550 66 195 0.0 0.0 0.00 0.00 0.00 85 1015.5
20260901083042 66 172 0.0 0.0 0.00 0.00 0.00 84 1015.5
20260901081541 66 251 0.0 0.0 0.00 0.00 0.00 83 1015.5
20260901080040 66 251 0.0 0.0 0.00 0.00 0.00 83 1015.7
20260901074545 66 138 0.0 0.0 0.00 0.00 0.00 83 1015.8
20260901073038 66 129 0.0 0.0 0.00 0.00 0.00 83 1015.8
20260901071537 66 191 0.0 0.0 0.00 0.00 0.00 84 1015.9
20260901070034 66 40 0.0 0.0 0.00 0.00 0.00 85 1016.1
20260901064533 66 232 0.0 1.0 0.00 0.00 0.00 86 1016.0
20260901063031 65 272 0.0 1.0 0.00 0.00 0.00 87 1016.2
20260901061530 65 124 0.0 0.0 0.00 0.00 0.00 88 1016.2
20260901060030 65 124 0.0 0.0 0.00 0.00 0.00 90 1016.3
20260901054529 64 268 0.0 0.0 0.00 0.00 0.00 90 1016.2
20260901053027 65 268 0.0 1.0 0.00 0.00 0.00 90 1016.3
20260901051526 65 248 0.0 0.0 0.00 0.00 0.00 90 1016.3
20260901050026 65 115 0.0 0.0 0.00 0.00 0.00 90 1016.3
20260901044537 65 131 0.0 1.0 0.00 0.00 0.00 89 1016.4
20260901043024 65 131 0.0 0.0 0.00 0.00 0.00 89 1016.4
20260901041527 66 282 0.0 0.0 0.00 0.00 0.00 89 1016.5
20260901040018 66 224 0.0 2.0 0.00 0.00 0.00 89 1016.4
20260901034529 66 256 0.0 0.0 0.00 0.00 0.00 89 1016.4
20260901033038 65 138 0.0 0.0 0.00 0.00 0.00 89 1016.4